Location: Fort Worth, Tx
(32.7431°N, 97.3695°W)
Time: 04:08:32
(UTC-04:00)

Vanguard 3 - Pass Details

Date: 23 February 2024
Orbit: 510 x 3234 km, 33.3° (Epoch: 24 April)

Event Time Altitude Azimuth Distance (km) Brightness Sun altitude
Rises 20:34:02 0° 221° (SW) 6,409 12.4 -16.0°
Reaches altitude 10° 20:38:06 10° 216° (SW) 5,657 11.9 -16.8°
Maximum altitude 20:55:42 52° 146° (SSE) 3,765 10.2 -20.5°
Enters shadow 21:06:23 29° 90° (E) 4,558 10.3 -22.7°
